Orbital Elements at Epoch 2459000.5 (2020-May-31.0) TDB
Reference: JPL 17 (heliocentric ecliptic J2000)
Element | Value | Uncertainty (1-sigma) | Units |
e | .2108775818090331 | 5.0863e-08 | |
a | 2.253169888638714 | 6.8131e-09 | au |
q | 1.778026871117654 | 1.1288e-07 | au |
i | 5.287678036538414 | 3.7239e-06 | deg |
node | 282.8766726246295 | 5.9115e-05 | deg |
peri | 72.69886972344132 | 6.0247e-05 | deg |
M | 343.697226511284 | 9.6354e-06 | deg |
tp | 2459056.443331887263 (2020-Jul-25.94333189) | 3.3133e-05 | TDB |
period | 1235.348052486556 3.38 | 5.6031e-06 1.534e-08 | d yr |
n | .291415847764829 | 1.3218e-09 | deg/d |
Q | 2.728312906159775 | 8.2498e-09 | au |
|
| | Orbit Determination Parameters
Additional Information
|